Location: Alfortville
(48.8058°N, 2.4204°E)
Time: 19:02:48
(UTC+00:00)

Cosmos 1602 Rocket - Pass Details

Date: 24 October 2021
Orbit: 603 x 633 km, 82.5° (Epoch: 07 December)

Event Time Altitude Azimuth Distance (km) Brightness Sun altitude
Rises 17:43:58 0° 356° (N) 2,890 7.0 -10.6°
Reaches altitude 10° 17:46:20 10° 4° (N) 1,976 6.0 -10.9°
Maximum altitude 17:50:26 39° 74° (ENE) 918 4.0 -11.6°
Drops below altitude 10° 17:54:29 10° 144° (SE) 1,949 5.8 -12.3°
Sets 17:56:48 0° 152° (SSE) 2,846 6.7 -12.7°
